This is the latest recevied weather packets stored in our database for station/object KD2SIG. If no packets are shown the sender has not sent any weather packets the latest 10 day(s).
| Time | Temp. | Humidity | Pressure | Rain* | Wind** | Luminosity | Snow |
|---|---|---|---|---|---|---|---|
| 1777585888 | 7.22° C | 84% | 1011 hPa | 0 mm | - | 36 W/m² | - |
| 1777585588 | 7.22° C | 83% | 1011 hPa | 0 mm | - | 36 W/m² | - |
| 1777585284 | 7.22° C | 82% | 1010.9 hPa | 0 mm | - | 42 W/m² | - |
| 1777584979 | 7.22° C | 82% | 1010.9 hPa | 0 mm | - | 42 W/m² | - |
| 1777584676 | 7.22° C | 82% | 1010.9 hPa | 0 mm | - | 30 W/m² | - |
| 1777584373 | 7.22° C | 81% | 1010.9 hPa | 0 mm | - | 29 W/m² | - |
| 1777584069 | 7.22° C | 82% | 1010.7 hPa | 0 mm | - | 33 W/m² | - |
| 1777583764 | 7.78° C | 82% | 1010.7 hPa | 0 mm | - | 43 W/m² | - |
| 1777583463 | 7.78° C | 82% | 1010.7 hPa | 0 mm | - | 41 W/m² | - |
| 1777583157 | 7.78° C | 82% | 1010.7 hPa | 0 mm | - | 49 W/m² | - |
| 1777582853 | 7.22° C | 81% | 1010.7 hPa | 0 mm | - | 52 W/m² | - |
| 1777582550 | 7.22° C | 81% | 1010.6 hPa | 0 mm | - | 53 W/m² | - |
| 1777582245 | 7.22° C | 82% | 1010.3 hPa | 0 mm | - | 36 W/m² | - |
| 1777581943 | 7.78° C | 82% | 1010.5 hPa | 0 mm | - | 35 W/m² | - |
| 1777581638 | 7.22° C | 81% | 1010.6 hPa | 0 mm | - | 40 W/m² | - |
| 1777581332 | 7.22° C | 81% | 1010.6 hPa | 0 mm | - | 71 W/m² | - |
| 1777581028 | 7.22° C | 81% | 1010.5 hPa | 0 mm | - | 69 W/m² | - |
| 1777580727 | 7.22° C | 81% | 1010.6 hPa | 0 mm | - | 64 W/m² | - |
| 1777580424 | 7.78° C | 82% | 1010.7 hPa | 0 mm | - | 65 W/m² | - |
| 1777580119 | 7.78° C | 82% | 1010.6 hPa | 0 mm | - | 80 W/m² | - |
| 1777579816 | 7.78° C | 82% | 1010.4 hPa | 0 mm | - | 85 W/m² | - |
| 1777579515 | 7.78° C | 82% | 1010.5 hPa | 0 mm | - | 79 W/m² | - |
| 1777579209 | 7.78° C | 82% | 1010.4 hPa | 0 mm | - | 81 W/m² | - |
| 1777578904 | 7.78° C | 83% | 1010.2 hPa | 0 mm | - | 92 W/m² | - |
| 1777578600 | 7.78° C | 82% | 1010.1 hPa | 0 mm | - | 100 W/m² | - |
* Rain latest hour (hover to see other rain measurements)
** Current wind speed in m/s (hover to see current wind gust speed)